time_stamp(utc),avg(mph),gust(mph),direction(deg),12m_air_temp(f),sonic_u(cm/s),sonic_v(cm/s),sonic_w(cm/s),pressure,2m_air_temp(f),pyranometer(W/m^2)
"2018-02-24 00:02:58+00",7.4,8.4,,42.3,-186,253,22,1026.34,42.2,0
"2018-02-24 00:07:58+00",6.2,7.2,,42.2,-139,228,19,1026.19,42.2,0
"2018-02-24 00:12:58+00",4.1,5.1,,42.2,-67,157,6,1025.88,42.1,0
"2018-02-24 00:17:58+00",4.4,4.4,,42.1,-47,172,3,1025.65,42.1,0
"2018-02-24 00:22:58+00",5.0,6.0,,42.1,-91,190,13,1025.71,42.1,0
"2018-02-24 00:27:58+00",4.1,5.1,,42.1,-20,168,6,1025.45,42.1,0
"2018-02-24 00:32:58+00",1.9,2.9,,42.1,67,28,4,1025.06,42.1,0
"2018-02-24 00:37:58+00",1.1,1.1,,42.1,58,23,-13,1025.08,42.1,0
"2018-02-24 00:42:58+00",2.8,3.8,,42.1,-71,88,10,1025.31,42.1,0
"2018-02-24 00:47:58+00",2.2,2.2,,42.1,-32,71,0,1025.11,42.1,0
"2018-02-24 00:52:58+00",2.6,2.6,,42.1,-79,72,15,1025.17,42.1,0
"2018-02-24 00:57:58+00",3.4,3.4,,42.1,-67,116,5,1025.16,42,0
"2018-02-24 01:02:58+00",2.6,3.6,,42.1,-82,68,14,1025.14,42.1,0
"2018-02-24 01:07:58+00",2.2,2.2,,42.1,-305,-1,113,1024.83,42.1,0
"2018-02-24 01:12:58+00",2.4,2.4,,42.1,-400,-6,149,1024.8,42.1,0
"2018-02-24 01:17:58+00",2.0,2.0,,42.1,-230,19,89,1024.8,42.1,0
"2018-02-24 01:22:58+00",3.2,3.2,,42.2,-622,-21,248,1024.75,42.1,0
"2018-02-24 01:27:58+00",3.9,3.9,,42.3,-1089,-1,452,1024.81,42.1,0
"2018-02-24 01:32:58+00",3.7,3.7,,42.3,-921,-6,377,1024.79,42.2,0
"2018-02-24 01:37:58+00",3.6,4.6,,42.3,-923,-5,378,1024.75,42.2,0
"2018-02-24 01:42:58+00",5.5,6.5,,42.3,-2230,35,966,1024.99,42.3,0
"2018-02-24 01:47:58+00",6.1,6.1,,42.5,-2468,37,1068,1024.9,42.3,0
"2018-02-24 01:52:58+00",6.9,7.9,,42.6,-2674,63,1153,1024.93,42.5,0
"2018-02-24 01:57:58+00",7.7,8.7,,42.7,-2264,89,948,1024.98,42.5,0
"2018-02-24 02:02:58+00",7.0,8.0,,42.9,-1797,26,735,1024.87,42.7,0
"2018-02-24 02:07:58+00",6.7,7.7,,42.9,-1324,-3,524,1024.77,42.7,0
"2018-02-24 02:12:58+00",7.3,8.3,,42.8,-938,-55,326,1024.73,42.7,0
"2018-02-24 02:17:58+00",5.9,6.9,,42.8,-386,-72,95,1024.47,42.7,0
"2018-02-24 02:22:58+00",6.6,7.6,,42.8,-621,-60,209,1024.49,42.7,0
"2018-02-24 02:27:58+00",7.1,8.1,,42.8,-423,-97,78,1024.47,42.7,0
"2018-02-24 02:32:58+00",7.7,8.7,,42.8,-490,-64,103,1024.54,42.7,0
"2018-02-24 02:37:58+00",8.7,9.7,,42.9,-435,-24,50,1024.68,42.8,0
"2018-02-24 02:42:58+00",7.4,9.4,,43,-312,-92,22,1024.4,42.9,0
"2018-02-24 02:47:58+00",7.2,8.2,,43,-295,-84,14,1024.24,42.9,0
"2018-02-24 02:52:58+00",7.6,8.6,,43.1,-330,-155,9,1024.08,43,0
"2018-02-24 02:57:58+00",8.5,9.5,,43.2,-515,-138,93,1024,43,0
"2018-02-24 03:02:58+00",7.9,8.9,,43.4,-461,-135,104,1024.09,43.1,0
"2018-02-24 03:07:58+00",7.9,8.9,,43.4,-454,-162,88,1023.92,43.2,0
"2018-02-24 03:12:58+00",8.3,9.3,,43.5,-625,-151,160,1023.8,43.3,0
"2018-02-24 03:17:58+00",8.5,9.5,,43.5,-332,-190,24,1023.63,43.3,0
"2018-02-24 03:22:58+00",8.0,9.0,,43.6,-536,-158,110,1023.74,43.4,0
"2018-02-24 03:27:58+00",8.4,9.4,,43.6,-327,-201,27,1023.56,43.4,0
"2018-02-24 03:32:58+00",7.9,8.9,,43.6,-630,-139,163,1023.61,43.4,0
"2018-02-24 03:37:58+00",7.8,9.8,,43.6,-470,-112,103,1023.63,43.4,0
"2018-02-24 03:42:58+00",8.8,9.8,,43.7,-589,-147,125,1023.67,43.5,0
"2018-02-24 03:47:58+00",10.0,11.0,,43.7,-619,-202,111,1023.61,43.5,0
"2018-02-24 03:52:58+00",9.9,11.9,,43.7,-543,-213,89,1023.58,43.6,0
"2018-02-24 03:57:58+00",9.3,11.3,,43.7,-394,-209,45,1023.48,43.5,0
"2018-02-24 04:02:58+00",9.5,10.5,,43.8,-412,-217,41,1023.35,43.6,0
"2018-02-24 04:07:58+00",10.6,12.6,,43.8,-390,-251,2,1023.26,43.6,0
"2018-02-24 04:12:58+00",10.3,11.3,,43.9,-372,-247,17,1023.2,43.6,0
"2018-02-24 04:17:58+00",11.7,13.7,,44,-452,-271,19,1023.18,43.7,0
"2018-02-24 04:22:58+00",10.9,12.9,,44.1,-490,-166,28,1023.41,43.8,0
"2018-02-24 04:27:58+00",10.4,12.4,,44.2,-463,-198,29,1023.31,43.8,0
"2018-02-24 04:32:58+00",9.8,10.8,,44.2,-418,-147,18,1023.25,43.9,0
"2018-02-24 04:37:58+00",10.3,11.3,,44.3,-452,-186,15,1023.14,44,0
"2018-02-24 04:42:58+00",11.4,13.4,,44.4,-500,-189,18,1023.21,44.1,0
"2018-02-24 04:47:58+00",11.0,13.0,,44.4,-468,-147,21,1023.08,44.1,0
"2018-02-24 04:52:58+00",10.7,14.7,,44.5,-467,-162,21,1022.97,44.2,0
"2018-02-24 04:57:58+00",12.0,13.0,,44.6,-501,-121,32,1022.8,44.3,0
"2018-02-24 05:02:58+00",13.0,15.0,,44.7,-537,-122,18,1022.81,44.3,0
"2018-02-24 05:07:58+00",11.7,13.7,,44.7,-489,-157,30,1022.68,44.3,0
"2018-02-24 05:12:58+00",11.0,12.0,,44.7,-465,-140,27,1022.52,44.3,0
"2018-02-24 05:17:58+00",13.6,14.6,,44.8,-577,-169,28,1022.39,44.3,0
"2018-02-24 05:22:58+00",14.6,17.6,,44.9,-620,-203,21,1022.46,44.3,0
"2018-02-24 05:27:58+00",11.0,13.0,,44.9,-470,-206,25,1022.37,44.3,0
"2018-02-24 05:32:58+00",14.5,16.5,,44.9,-602,-138,29,1022.45,44.3,0
"2018-02-24 05:37:58+00",16.2,18.2,,45,-673,-144,35,1022.27,44.2,0
"2018-02-24 05:42:58+00",13.5,15.5,,44.9,-574,-204,26,1022.18,44.2,0
"2018-02-24 05:47:58+00",14.6,17.6,,45,-611,-182,43,1022.14,44.2,0
"2018-02-24 05:52:58+00",14.4,16.4,,45,-592,-179,19,1022.19,44.2,0
"2018-02-24 05:57:58+00",15.6,17.6,,45,-647,-160,22,1022.25,44.1,0
"2018-02-24 06:02:58+00",14.0,16.0,,44.9,-579,-118,22,1022.36,44.2,0
"2018-02-24 06:07:58+00",12.8,13.8,,45,-543,-65,15,1022.35,44.2,0
"2018-02-24 06:12:58+00",14.0,16.0,,45,-591,-78,43,1022.3,44.2,0
"2018-02-24 06:17:58+00",14.0,16.0,,45.1,-598,-77,27,1022.3,44.3,0
"2018-02-24 06:22:58+00",13.4,15.4,,45.1,-578,-34,39,1022.38,44.3,0
"2018-02-24 06:27:58+00",12.6,15.6,,45.1,-552,-12,40,1022.42,44.4,0
"2018-02-24 06:32:58+00",16.6,19.6,,45.1,-719,-68,31,1022.54,44.4,0
"2018-02-24 06:37:58+00",15.5,17.5,,45.1,-661,-51,27,1022.45,44.5,0
"2018-02-24 06:42:58+00",12.5,14.5,,45,-526,-74,32,1022.44,44.4,0
"2018-02-24 06:47:58+00",12.1,14.1,,44.9,-507,-86,28,1022.26,44.4,0
"2018-02-24 06:52:58+00",12.4,13.4,,44.9,-545,-4,30,1022.32,44.4,0
"2018-02-24 06:57:58+00",14.2,16.2,,44.9,-600,-116,15,1022.2,44.4,0
"2018-02-24 07:02:58+00",13.3,15.3,,44.8,-550,-127,23,1022.12,44.3,0
"2018-02-24 07:07:58+00",13.6,15.6,,44.7,-562,-137,13,1021.94,44.2,0
"2018-02-24 07:12:58+00",13.3,16.3,,44.6,-554,-127,22,1021.92,44.2,0
"2018-02-24 07:17:58+00",13.6,15.6,,44.6,-560,-168,26,1021.83,44.2,0
"2018-02-24 07:22:58+00",13.4,14.4,,44.6,-552,-138,35,1021.88,44.2,0
"2018-02-24 07:27:58+00",14.4,16.4,,44.6,-597,-136,13,1021.69,44.2,0
"2018-02-24 07:32:58+00",13.3,15.3,,44.6,-567,-67,12,1021.77,44.2,0
"2018-02-24 07:37:58+00",14.1,15.1,,44.7,-610,-45,17,1021.76,44.2,0
"2018-02-24 07:42:58+00",16.5,19.5,,44.8,-728,16,23,1021.98,44.3,0
"2018-02-24 07:47:58+00",12.7,14.7,,44.8,-546,-67,43,1021.55,44.4,0
"2018-02-24 07:52:58+00",14.2,16.2,,44.8,-616,-55,18,1021.57,44.4,0
"2018-02-24 07:57:58+00",12.4,14.4,,44.8,-544,-42,14,1021.55,44.4,0
"2018-02-24 08:02:58+00",13.2,15.2,,44.9,-588,32,19,1021.63,44.4,0
"2018-02-24 08:07:58+00",13.6,16.6,,45,-597,12,30,1021.57,44.5,0
"2018-02-24 08:12:58+00",12.5,14.5,,45,-543,40,39,1021.62,44.5,0
"2018-02-24 08:17:58+00",12.6,13.6,,45,-548,128,36,1021.63,44.5,0
"2018-02-24 08:22:58+00",12.6,14.6,,45,-546,142,43,1021.55,44.4,0
"2018-02-24 08:27:58+00",12.9,14.9,,45.1,-575,125,41,1021.41,44.5,0
"2018-02-24 08:32:58+00",12.8,14.8,,45,-560,117,29,1021.54,44.5,0
"2018-02-24 08:37:58+00",13.4,14.4,,45,-576,177,38,1021.43,44.5,0
"2018-02-24 08:42:58+00",12.5,14.5,,45.1,-541,136,28,1021.24,44.5,0
"2018-02-24 08:47:58+00",12.5,13.5,,45.1,-538,172,32,1021.28,44.5,0
"2018-02-24 08:52:58+00",13.4,15.4,,45.1,-576,174,51,1021.18,44.5,0
"2018-02-24 08:57:58+00",12.3,13.3,,45.2,-533,140,44,1021.07,44.5,0
"2018-02-24 09:02:58+00",11.8,12.8,,45.2,-514,137,30,1020.94,44.6,0
"2018-02-24 09:07:58+00",12.5,13.5,,45.2,-548,101,26,1020.94,44.6,0
"2018-02-24 09:12:58+00",12.3,13.3,,45.2,-532,144,32,1020.94,44.6,0
"2018-02-24 09:17:58+00",10.8,11.8,,45.2,-468,118,31,1020.91,44.6,0
"2018-02-24 09:22:58+00",11.6,12.6,,45.2,-504,130,33,1021,44.6,0
"2018-02-24 09:27:58+00",10.5,11.5,,45.2,-458,34,20,1020.86,44.7,0
"2018-02-24 09:32:58+00",11.0,13.0,,45.2,-486,40,25,1020.98,44.7,0
"2018-02-24 09:37:58+00",10.3,11.3,,45.3,-454,36,27,1021.01,44.7,0
"2018-02-24 09:42:58+00",10.4,12.4,,45.3,-464,51,31,1021.14,44.8,0
"2018-02-24 09:47:58+00",10.3,11.3,,45.2,-452,77,31,1021.21,44.7,0
"2018-02-24 09:52:58+00",12.0,13.0,,45.3,-524,65,31,1021.12,44.7,0
"2018-02-24 09:57:58+00",11.1,12.1,,45.3,-488,42,25,1020.98,44.8,0
"2018-02-24 10:02:58+00",11.0,13.0,,45.3,-485,4,24,1020.99,44.8,0
"2018-02-24 10:07:58+00",10.3,12.3,,45.3,-457,40,31,1021.21,44.8,0
"2018-02-24 10:12:58+00",11.7,13.7,,45.3,-520,17,26,1021.18,44.8,0
"2018-02-24 10:17:58+00",10.7,12.7,,45.3,-474,69,28,1021.24,44.8,0
"2018-02-24 10:22:58+00",12.8,14.8,,45.3,-560,159,34,1021.51,44.8,0
"2018-02-24 10:27:58+00",12.3,14.3,,45.3,-536,141,40,1021.47,44.7,0
"2018-02-24 10:32:58+00",11.3,13.3,,45.2,-500,41,30,1021.32,44.8,0
"2018-02-24 10:37:58+00",10.6,11.6,,45.2,-449,154,24,1021.31,44.7,0
"2018-02-24 10:42:58+00",11.5,13.5,,45.2,-465,232,36,1021.62,44.8,0
"2018-02-24 10:47:58+00",9.8,11.8,,45.1,-413,146,34,1021.33,44.8,0
"2018-02-24 10:52:58+00",8.1,9.1,,45.1,-339,131,24,1021.29,44.7,0
"2018-02-24 10:57:58+00",8.2,10.2,,45.1,-312,190,32,1021.13,44.7,0
"2018-02-24 11:02:58+00",12.2,13.2,,45,-475,270,35,1021.33,44.7,0
"2018-02-24 11:07:58+00",12.5,13.5,,44.9,-489,282,39,1021.38,44.7,0
"2018-02-24 11:12:58+00",9.3,10.3,,45,-344,220,26,1021.48,44.7,0
"2018-02-24 11:17:58+00",9.5,10.5,,44.9,-379,201,29,1021.51,44.6,0
"2018-02-24 11:22:58+00",9.4,10.4,,44.8,-374,205,26,1021.64,44.6,0
"2018-02-24 11:27:58+00",10.6,11.6,,44.7,-394,274,31,1021.49,44.6,0
"2018-02-24 11:32:58+00",9.2,10.2,,44.7,-370,164,28,1021.46,44.5,0
"2018-02-24 11:37:58+00",10.0,11.0,,44.8,-416,177,27,1021.6,44.5,0
"2018-02-24 11:42:58+00",9.7,10.7,,44.8,-407,135,31,1021.77,44.5,0
"2018-02-24 11:47:58+00",9.4,10.4,,44.8,-368,182,46,1021.98,44.5,0
"2018-02-24 11:52:58+00",10.0,11.0,,44.8,-409,175,24,1022.07,44.5,0
"2018-02-24 11:57:58+00",9.5,10.5,,44.8,-387,169,12,1022.1,44.6,0
"2018-02-24 12:02:58+00",9.4,10.4,,44.8,-372,169,17,1022.01,44.6,0
"2018-02-24 12:07:58+00",8.4,9.4,,44.8,-355,124,23,1022.02,44.6,0
"2018-02-24 12:12:58+00",7.2,8.2,,44.8,-305,101,19,1022.11,44.5,0
"2018-02-24 12:17:58+00",6.5,7.5,,44.8,-278,59,17,1021.97,44.6,0
"2018-02-24 12:22:58+00",7.2,8.2,,44.9,-297,-62,11,1022.11,44.6,0
"2018-02-24 12:27:58+00",6.7,7.7,,44.8,-284,6,6,1021.86,44.7,0
"2018-02-24 12:32:58+00",7.1,8.1,,44.8,-302,67,33,1022.07,44.6,0
"2018-02-24 12:37:58+00",4.7,4.7,,44.8,-202,32,15,1021.83,44.7,0
"2018-02-24 12:42:58+00",5.3,5.3,,44.9,-220,-20,29,1021.75,44.8,1
"2018-02-24 12:47:58+00",5.6,6.6,,45,-240,15,32,1021.75,44.9,7.4
"2018-02-24 12:52:58+00",4.8,5.8,,44.9,-197,49,10,1021.84,45,9.9
"2018-02-24 12:57:58+00",3.5,3.5,,44.9,-143,2,4,1021.56,45.1,6.1
"2018-02-24 13:02:58+00",3.8,4.8,,44.9,-147,-50,16,1021.66,45.1,0.8
"2018-02-24 13:07:58+00",5.7,5.7,,44.9,-230,-55,2,1021.67,45.1,0.1
"2018-02-24 13:12:58+00",2.9,3.9,,44.9,-92,-72,13,1021.46,45.1,0
"2018-02-24 13:17:58+00",5.5,6.5,,44.9,-130,-202,2,1021.35,45.1,0.3
"2018-02-24 13:22:58+00",6.7,7.7,,45,-208,-189,1,1021.65,45.1,1.3
"2018-02-24 13:27:58+00",7.4,8.4,,45,-226,-223,5,1021.87,45.2,3.2
"2018-02-24 13:32:58+00",5.6,6.6,,45,-204,-109,5,1021.77,45.2,4.1
"2018-02-24 13:37:58+00",4.2,5.2,,45.1,-169,38,27,1021.78,45.2,7.8
"2018-02-24 13:42:58+00",5.6,6.6,,45.2,-182,153,28,1021.77,45.4,13.6
"2018-02-24 13:47:58+00",3.2,4.2,,45.3,-104,54,43,1021.89,45.5,4.3
"2018-02-24 13:52:58+00",3.5,3.5,,45.2,-131,58,8,1021.87,45.5,1.4
"2018-02-24 13:57:58+00",3.6,3.6,,45.2,-123,76,-5,1021.81,45.5,14.5
"2018-02-24 14:02:58+00",2.0,3.0,,45.3,-72,27,16,1021.63,45.7,33.8
"2018-02-24 14:07:58+00",1.7,2.7,,45.3,-53,16,-2,1021.74,45.8,26.2
"2018-02-24 14:12:58+00",3.5,4.5,,45.4,-142,45,7,1021.98,45.9,3
"2018-02-24 14:17:58+00",4.7,5.7,,45.5,-196,31,20,1022.1,45.9,0.7
"2018-02-24 14:22:58+00",3.8,4.8,,45.5,-136,76,31,1022.13,45.9,0
"2018-02-24 14:27:58+00",2.7,3.7,,45.4,-90,47,4,1021.91,45.9,0.8
"2018-02-24 14:32:58+00",2.7,2.7,,45.4,-106,-5,13,1021.78,45.8,10.8
"2018-02-24 14:37:58+00",2.9,4.9,,45.5,-96,-80,17,1021.8,45.9,1.8
"2018-02-24 14:42:58+00",3.6,4.6,,45.7,-104,-109,16,1021.69,46,21.5
"2018-02-24 14:47:58+00",4.2,5.2,,45.7,-98,-149,5,1021.72,46.1,39.2
"2018-02-24 14:52:58+00",4.3,4.3,,45.8,-142,-104,-8,1021.69,46.3,51.3
"2018-02-24 14:57:58+00",2.4,2.4,,46,-82,-56,9,1021.5,46.6,59.3
"2018-02-24 15:02:58+00",3.4,3.4,,46.1,-93,-109,-2,1021.52,46.8,52.8
"2018-02-24 15:07:58+00",3.7,4.7,,46.2,-135,-90,13,1021.53,47,47.8
"2018-02-24 15:12:58+00",4.7,5.7,,46.3,-146,-133,1,1021.44,47.2,71.1
"2018-02-24 15:17:58+00",6.2,7.2,,46.4,-239,-127,-2,1021.54,47.3,61.8
"2018-02-24 15:22:58+00",4.9,5.9,,46.5,-183,-105,-4,1021.33,47.4,108.4
"2018-02-24 15:27:58+00",4.9,5.9,,46.7,-200,-74,8,1021.38,47.8,127.1
"2018-02-24 15:32:58+00",3.3,4.3,,47,-115,-82,17,1021.27,48.4,328.3
"2018-02-24 15:37:58+00",3.8,4.8,,47.3,-149,-11,44,1021.18,49.2,116.3
"2018-02-24 15:42:58+00",5.0,6.0,,47.4,-208,28,46,1021.16,49.7,314.9
"2018-02-24 15:47:58+00",3.8,4.8,,47.6,-152,-57,26,1021.13,50.2,157.7
"2018-02-24 15:52:58+00",2.5,3.5,,47.7,-93,6,-8,1021.01,50.5,121.8
"2018-02-24 15:57:58+00",4.3,5.3,,48.1,-164,88,33,1021.06,51,190
"2018-02-24 16:02:58+00",3.7,4.7,,48.1,-152,11,38,1021.25,50.9,84.8
"2018-02-24 16:07:58+00",6.3,7.3,,48.2,-272,12,0,1021.31,50.6,90
"2018-02-24 16:12:58+00",7.0,8.0,,48.2,-220,209,40,1021.26,50.3,109.9
"2018-02-24 16:17:58+00",7.2,8.2,,47.9,-235,217,19,1021.2,49.8,141.5
"2018-02-24 16:22:58+00",6.0,7.0,,47.8,-228,118,26,1021.31,49.4,159.6
"2018-02-24 16:27:58+00",4.3,5.3,,48.1,-151,104,40,1021.05,49.5,145.5
"2018-02-24 16:32:58+00",6.0,7.0,,48.1,-199,153,-1,1021.04,49.6,153.9
"2018-02-24 16:37:58+00",5.9,6.9,,48.3,-193,162,8,1020.98,49.7,183.9
"2018-02-24 16:42:58+00",4.7,5.7,,48.6,-163,114,28,1021.09,50,164
"2018-02-24 16:47:58+00",5.3,6.3,,48.5,-166,148,-2,1021,50.1,103.7
"2018-02-24 16:52:58+00",5.5,6.5,,48.5,-205,128,15,1021.14,50,63.9
"2018-02-24 16:57:58+00",5.4,6.4,,48.6,-199,134,21,1021.26,49.7,25.4
"2018-02-24 17:02:58+00",2.4,3.4,,48.6,-72,61,-3,1021,49.6,67.5
"2018-02-24 17:07:58+00",2.5,3.5,,48.8,-68,62,-10,1020.9,49.9,77.6
"2018-02-24 17:12:58+00",3.9,4.9,,49.1,-138,71,13,1020.89,50.2,59.9
"2018-02-24 17:17:58+00",2.3,3.3,,49.3,-78,37,-6,1020.73,50.4,80.4
"2018-02-24 17:22:58+00",1.4,2.4,,49.7,-57,-11,-1,1020.54,50.9,104
"2018-02-24 17:27:58+00",1.5,1.5,,50,-49,-9,-3,1020.33,51.5,94.6
"2018-02-24 17:32:58+00",0.8,1.8,,50.3,-15,5,3,1020.2,51.9,108.7
"2018-02-24 17:37:58+00",2.2,3.2,,50.6,-2,46,36,1019.93,52.5,149.1
"2018-02-24 17:42:58+00",2.3,3.3,,51,81,-17,23,1019.71,53,166.4
"2018-02-24 17:47:58+00",2.2,4.2,,51.2,41,49,22,1019.66,53.4,114
"2018-02-24 17:52:58+00",4.1,5.1,,51.6,70,144,-19,1019.58,53.5,114.3
"2018-02-24 17:57:58+00",4.5,5.5,,51.5,141,116,7,1019.36,53.3,115.1
"2018-02-24 18:02:58+00",4.0,6.0,,51.2,163,44,-26,1019.55,53.1,102.3
"2018-02-24 18:07:58+00",3.1,4.1,,50.9,124,15,22,1019.57,52.7,27.7
"2018-02-24 18:12:58+00",1.9,2.9,,50.9,59,19,16,1019.61,52.7,8
"2018-02-24 18:17:58+00",3.3,4.3,,50.8,125,47,17,1019.45,52.4,11.5
"2018-02-24 18:22:58+00",4.9,5.9,,50.7,213,3,33,1019.45,52.2,30.1
"2018-02-24 18:27:58+00",5.3,6.3,,50.5,214,-62,-6,1019.28,51.9,74.4
"2018-02-24 18:32:58+00",5.0,6.0,,50.2,208,-38,-10,1019.24,51.7,83.1
"2018-02-24 18:37:58+00",5.0,6.0,,50.2,198,-67,-2,1019.32,51.8,72.5
"2018-02-24 18:42:58+00",4.4,5.4,,50.2,172,-76,16,1019.45,51.8,31.3
"2018-02-24 18:47:58+00",5.2,5.2,,49.9,189,-108,-1,1019.43,51.6,24.8
"2018-02-24 18:52:58+00",4.2,5.2,,49.6,165,-64,-6,1019.43,51.3,20.3
"2018-02-24 18:57:58+00",4.0,4.0,,49.4,164,-37,6,1019.51,51,19.9
"2018-02-24 19:02:58+00",3.6,3.6,,49.1,125,-77,-2,1019.68,50.8,0.7
"2018-02-24 19:07:58+00",4.0,4.0,,49,166,-9,-1,1019.65,50.5,13.3
"2018-02-24 19:12:58+00",3.0,4.0,,48.9,112,45,0,1019.95,50.5,2
"2018-02-24 19:17:58+00",2.2,3.2,,49,22,54,25,1020.21,50.5,0
"2018-02-24 19:22:58+00",2.5,3.5,,49.2,36,79,12,1020.27,50.3,0
"2018-02-24 19:27:58+00",3.8,3.8,,49.3,104,98,8,1020.11,50.2,0.3
"2018-02-24 19:32:58+00",3.2,4.2,,49.2,125,43,6,1020.07,50,0
"2018-02-24 19:37:58+00",3.0,3.0,,49.2,122,12,6,1020.05,50,0
"2018-02-24 19:42:58+00",4.3,4.3,,49.2,100,129,2,1020.22,49.8,0
"2018-02-24 19:47:58+00",4.8,5.8,,49.1,200,43,16,1019.96,49.7,0
"2018-02-24 19:52:58+00",5.5,6.5,,49.1,204,117,12,1019.8,49.7,0.5
"2018-02-24 19:57:58+00",4.8,5.8,,49.2,173,103,10,1019.74,49.7,0.1
"2018-02-24 20:02:58+00",5.1,6.1,,49.2,194,92,14,1019.67,49.7,2.9
"2018-02-24 20:07:58+00",3.6,4.6,,49,125,69,22,1019.73,49.8,0
"2018-02-24 20:12:58+00",4.6,5.6,,48.8,192,28,4,1019.64,49.6,0.8
"2018-02-24 20:17:58+00",4.7,5.7,,48.7,201,30,9,1019.6,49.5,1.6
"2018-02-24 20:22:58+00",5.1,6.1,,48.6,216,65,28,1019.54,49.4,4.8
"2018-02-24 20:27:58+00",6.1,7.1,,48.7,225,137,14,1019.52,49.4,5
"2018-02-24 20:32:58+00",7.9,8.9,,48.7,239,217,10,1019.51,49.3,4.5
"2018-02-24 20:37:58+00",7.2,8.2,,48.8,216,199,5,1019.48,49.2,1.2
"2018-02-24 20:42:58+00",5.9,6.9,,48.8,177,166,7,1019.6,49.2,0
"2018-02-24 20:47:58+00",6.9,7.9,,49,241,172,6,1019.47,49.2,1.1
"2018-02-24 20:52:58+00",5.9,6.9,,49.1,209,134,12,1019.55,49.3,0.8
"2018-02-24 20:57:58+00",4.8,5.8,,49.2,188,80,30,1019.48,49.4,0
"2018-02-24 21:02:58+00",5.2,5.2,,49.2,187,112,2,1019.6,49.5,0
"2018-02-24 21:07:58+00",4.5,4.5,,49.1,147,109,9,1019.85,49.5,0
"2018-02-24 21:12:58+00",3.2,4.2,,49.1,115,55,6,1020,49.5,0
"2018-02-24 21:17:58+00",4.4,4.4,,49.1,142,108,5,1020.06,49.4,0
"2018-02-24 21:22:58+00",3.6,4.6,,49.1,139,56,9,1019.92,49.4,0.1
"2018-02-24 21:27:58+00",4.0,5.0,,48.9,168,29,10,1020.06,49.3,0
"2018-02-24 21:32:58+00",3.7,4.7,,48.9,136,65,8,1020.23,49.2,0
"2018-02-24 21:37:58+00",4.1,5.1,,49,122,103,3,1020.42,49.2,0
"2018-02-24 21:42:58+00",5.0,6.0,,48.9,130,143,-2,1020.59,49.1,0
"2018-02-24 21:47:58+00",4.1,5.1,,48.9,83,136,5,1020.81,49.1,0
"2018-02-24 21:52:58+00",5.2,6.2,,49,50,205,-2,1020.98,49.1,0
"2018-02-24 21:57:58+00",6.6,7.6,,49,15,281,7,1021.04,49.1,0
"2018-02-24 22:02:58+00",6.8,7.8,,49,153,237,1,1020.73,49,0
"2018-02-24 22:07:58+00",6.0,7.0,,48.8,156,184,3,1020.83,48.8,0
"2018-02-24 22:12:58+00",6.6,7.6,,48.6,180,186,4,1020.68,48.5,0
"2018-02-24 22:17:58+00",7.4,8.4,,48.6,252,190,16,1020.35,48.3,0
"2018-02-24 22:22:58+00",8.3,9.3,,48.5,283,218,16,1020.25,48.2,0
"2018-02-24 22:27:58+00",6.9,8.9,,48.4,184,210,0,1020.53,48.2,0
"2018-02-24 22:32:58+00",5.9,6.9,,48.5,140,199,4,1020.61,48.2,0
"2018-02-24 22:37:58+00",4.9,6.9,,48.6,78,183,-11,1020.73,48.3,0
"2018-02-24 22:42:58+00",5.0,6.0,,48.7,60,195,3,1020.79,48.4,0
"2018-02-24 22:47:58+00",6.5,7.5,,48.8,-21,281,11,1021.24,48.5,0
"2018-02-24 22:52:58+00",7.2,8.2,,48.9,-83,300,9,1021.45,48.5,0
"2018-02-24 22:57:58+00",5.7,6.7,,48.9,26,232,6,1021.16,48.5,0
"2018-02-24 23:02:58+00",4.4,5.4,,48.9,25,175,-1,1021.23,48.5,0
"2018-02-24 23:07:58+00",3.8,3.8,,48.9,94,113,6,1020.94,48.5,0
"2018-02-24 23:12:58+00",3.2,4.2,,48.8,63,105,3,1021.14,48.4,0
"2018-02-24 23:17:58+00",3.5,3.5,,48.7,139,31,11,1020.76,48.3,0
"2018-02-24 23:22:58+00",4.1,5.1,,48.6,170,8,7,1020.86,48.3,0
"2018-02-24 23:27:58+00",3.5,3.5,,48.5,71,-116,7,1021.09,48.2,0
"2018-02-24 23:32:58+00",1.9,2.9,,48.3,-4,-72,5,1021.03,48.1,0
"2018-02-24 23:37:58+00",3.9,3.9,,48,152,-56,3,1020.89,47.9,0
"2018-02-24 23:42:58+00",5.6,6.6,,47.9,239,-16,13,1020.87,47.5,0
"2018-02-24 23:47:58+00",7.4,8.4,,47.6,324,-10,16,1020.78,47.1,0
"2018-02-24 23:52:58+00",6.3,7.3,,47.3,278,-14,19,1020.91,47,0
"2018-02-24 23:57:58+00",5.4,6.4,,46.6,229,46,16,1021.18,46.7,0
